Date,TemperatureHighF,TemperatureAvgF,TemperatureLowF,DewpointHighF,DewpointAvgF,DewpointLowF,HumidityHigh,HumidityAvg,HumidityLow,PressureMaxIn,PressureMinIn,WindSpeedMaxMPH,WindSpeedAvgMPH,GustSpeedMaxMPH,PrecipitationSumIn
2013-1-1,78,75,73,-100,-100,-100,0,0,100,30.19,30.06,11,6,17,0.00
2013-1-2,80,74,71,-100,-100,-100,0,0,100,30.11,30.03,8,4,13,0.00
2013-1-3,80,75,71,-100,-100,-100,0,0,100,30.15,30.05,8,4,13,0.00
2013-1-4,81,75,73,-100,-100,-100,0,0,100,30.23,30.12,10,4,14,0.00
2013-1-5,78,74,72,-100,-100,-100,0,0,100,30.24,30.15,17,9,19,0.00
2013-1-6,81,77,74,-100,-100,-100,0,0,100,30.19,30.07,11,6,18,0.00
2013-1-7,80,76,74,-100,-100,-100,0,0,100,30.16,30.07,16,6,20,0.00
2013-1-8,81,77,75,-100,-100,-100,0,0,100,30.19,30.07,13,8,18,0.00
2013-1-9,81,78,77,-100,-100,-100,0,0,100,30.25,30.14,14,10,21,0.00
2013-1-10,79,77,76,-100,-100,-100,0,0,100,30.27,30.15,15,11,23,0.00
2013-1-11,80,77,75,-100,-100,-100,0,0,100,30.24,30.15,16,10,23,0.00
2013-1-12,79,76,75,-100,-100,-100,0,0,100,30.17,30.09,12,8,20,0.00
2013-1-13,79,76,75,-100,-100,-100,0,0,100,30.13,30.06,13,8,21,0.00
2013-1-14,79,76,74,-100,-100,-100,0,0,100,30.16,30.12,13,8,19,0.00
2013-1-15,80,76,74,-100,-100,-100,0,0,100,30.14,30.05,11,7,17,0.00
2013-1-16,80,77,73,-100,-100,-100,0,0,100,30.11,30.03,9,5,14,0.00
2013-1-17,80,74,68,-100,-100,-100,0,0,100,30.14,30.03,27,8,32,0.00
2013-1-18,69,64,60,-100,-100,-100,0,0,100,30.25,30.14,22,10,27,0.00
2013-1-19,74,70,63,-100,-100,-100,0,0,100,30.23,30.11,10,5,12,0.00
2013-1-20,74,72,70,-100,-100,-100,0,0,100,30.17,30.04,10,5,12,0.00
2013-1-21,78,73,70,-100,-100,-100,0,0,100,30.11,30.03,19,8,22,0.00
2013-1-22,73,70,68,-100,-100,-100,0,0,100,30.21,30.05,21,10,24,0.00
2013-1-23,71,69,67,-100,-100,-100,0,0,100,30.28,30.18,21,17,25,0.00
2013-1-24,71,68,65,-100,-100,-100,0,0,100,30.31,30.20,20,13,24,0.00
2013-1-25,74,70,67,-100,-100,-100,0,0,100,30.29,30.18,19,13,21,0.00
2013-1-26,72,70,67,-100,-100,-100,0,0,100,30.25,30.17,18,12,21,0.00
2013-1-27,76,73,71,-100,-100,-100,0,0,100,30.26,30.18,22,12,28,0.00
2013-1-28,78,75,74,-100,-100,-100,0,0,100,30.30,30.21,14,10,22,0.00
2013-1-29,79,76,74,-100,-100,-100,0,0,100,30.23,30.12,13,9,20,0.00
2013-1-30,79,76,74,-100,-100,-100,0,0,100,30.14,29.99,14,8,23,0.00
2013-1-31,79,71,68,-100,-100,-100,0,0,100,30.19,30.03,21,9,26,0.00
2013-2-1,71,66,61,-100,-100,-100,0,0,100,30.26,30.16,21,16,29,0.00
2013-2-2,73,68,64,-100,-100,-100,0,0,100,30.25,30.13,20,14,24,0.00
2013-2-3,70,68,66,-100,-100,-100,0,0,100,30.19,30.08,15,8,18,0.00
2013-2-4,72,67,63,-100,-100,-100,0,0,100,30.16,30.04,19,11,22,0.00
2013-2-5,76,70,67,-100,-100,-100,0,0,100,30.09,30.02,11,5,13,0.00
2013-2-6,77,73,69,-100,-100,-100,0,0,100,30.11,30.03,9,5,14,0.00
2013-2-7,79,75,71,-100,-100,-100,0,0,100,30.09,29.98,11,5,16,0.00
2013-2-8,83,76,71,-100,-100,-100,0,0,100,30.07,29.96,13,6,16,0.00
2013-2-9,78,73,69,-100,-100,-100,0,0,100,30.16,30.05,14,9,20,0.00
2013-2-10,78,75,73,-100,-100,-100,0,0,100,30.24,30.13,15,10,23,0.00
2013-2-11,79,75,73,-100,-100,-100,0,0,100,30.22,30.13,13,9,19,0.00
2013-2-12,81,76,74,-100,-100,-100,0,0,100,30.14,30.01,11,7,17,0.00
2013-2-13,83,77,74,-100,-100,-100,0,0,100,30.05,29.96,9,5,16,0.00
2013-2-14,83,78,69,-100,-100,-100,0,0,100,30.02,29.93,27,6,39,0.00
2013-2-15,74,70,68,-100,-100,-100,0,0,100,30.03,29.95,21,9,26,0.00
2013-2-16,73,69,66,-100,-100,-100,0,0,100,30.10,29.90,31,16,36,0.00
2013-2-17,66,58,53,-100,-100,-100,0,0,100,30.31,30.10,29,14,36,0.00
2013-2-18,58,57,56,-100,-100,-100,0,0,100,30.30,30.26,21,16,25,0.00
2013-2-19,77,72,67,-100,-100,-100,0,0,100,30.16,30.08,11,6,17,0.00
2013-2-20,75,70,67,-100,-100,-100,0,0,100,30.10,29.99,12,6,15,0.00
2013-2-21,79,75,70,-100,-100,-100,0,0,100,30.07,29.98,11,7,17,0.00
2013-2-22,80,76,74,-100,-100,-100,0,0,100,30.08,29.98,11,7,18,0.00
2013-2-23,81,77,75,-100,-100,-100,0,0,100,30.04,29.93,12,6,18,0.00
2013-2-24,84,78,73,-100,-100,-100,0,0,100,30.00,29.91,7,3,10,0.00
2013-2-25,82,78,76,-100,-100,-100,0,0,100,29.92,29.80,11,-1,17,0.00
2013-2-26,83,79,76,-100,-100,-100,0,0,100,29.92,29.80,12,7,19,0.00
2013-2-27,84,76,73,-100,-100,-100,0,0,100,29.96,29.87,15,5,17,0.00
2013-2-28,74,71,65,-100,-100,-100,0,0,100,30.00,29.91,16,7,24,0.00
2013-3-1,71,67,62,-100,-100,-100,0,0,100,29.98,29.91,13,7,18,0.00
2013-3-2,66,62,60,-100,-100,-100,0,0,100,30.04,29.95,20,10,26,0.00
2013-3-3,67,60,55,-100,-100,-100,0,0,100,30.14,29.93,22,11,27,0.00
2013-3-4,63,58,54,-100,-100,-100,0,0,100,30.23,30.11,20,8,25,0.00
2013-3-5,73,67,61,-100,-100,-100,0,0,100,30.16,30.08,12,6,16,0.00
2013-3-6,78,68,61,-100,-100,-100,0,0,100,30.11,30.04,24,12,30,0.00
2013-3-7,64,60,56,-100,-100,-100,0,0,100,30.21,30.08,21,11,27,0.00
2013-3-11,76,74,73,-100,-100,-100,0,0,100,29.99,29.93,10,7,16,0.00
2013-3-12,81,75,69,-100,-100,-100,0,0,100,30.01,29.90,13,7,21,0.00
2013-3-13,73,68,64,-100,-100,-100,0,0,100,30.12,29.99,17,8,20,0.00
2013-3-14,69,66,62,-100,-100,-100,0,0,100,30.20,30.08,17,11,23,0.00
2013-3-15,70,65,61,-100,-100,-100,0,0,100,30.24,30.13,24,13,27,0.00
2013-3-16,73,68,65,-100,-100,-100,0,0,100,30.19,30.09,15,9,17,0.00
2013-3-17,77,73,69,-100,-100,-100,0,0,100,30.11,30.00,11,6,17,0.00
2013-3-18,80,75,73,-100,-100,-100,0,0,100,30.06,29.95,15,6,21,0.00
2013-3-19,76,72,68,-100,-100,-100,0,0,100,30.02,29.91,14,6,21,0.00
2013-3-20,78,72,68,-100,-100,-100,0,0,100,29.99,29.84,15,6,20,0.00
2013-3-21,74,70,68,-100,-100,-100,0,0,100,29.94,29.83,11,6,14,0.00
2013-3-22,80,75,70,-100,-100,-100,0,0,100,29.98,29.88,10,5,18,0.00
2013-3-23,82,78,74,-100,-100,-100,0,0,100,29.98,29.83,11,6,17,0.00
2013-3-24,85,79,76,-100,-100,-100,0,0,100,29.89,29.72,15,7,24,0.00
2013-3-25,80,75,66,-100,-100,-100,0,0,100,30.01,29.76,23,9,30,0.00
2013-3-26,73,65,60,-100,-100,-100,0,0,100,30.21,29.99,30,15,36,0.00
2013-3-27,63,59,53,-100,-100,-100,0,0,100,30.27,30.16,16,10,23,0.00
2013-3-28,69,64,60,-100,-100,-100,0,0,100,30.24,30.15,20,12,23,0.00
2013-3-29,73,68,64,-100,-100,-100,0,0,100,30.27,30.18,18,12,21,0.00
2013-3-30,74,70,67,-100,-100,-100,0,0,100,30.23,30.13,15,9,20,0.00
2013-3-31,78,74,70,-100,-100,-100,0,0,100,30.17,30.03,13,6,19,0.00
2013-4-1,83,76,71,-100,-100,-100,0,0,100,30.06,29.97,9,5,14,0.00
2013-4-2,80,74,72,-100,-100,-100,0,0,100,30.09,30.00,7,4,10,0.00
2013-4-3,80,77,73,-100,-100,-100,0,0,100,30.06,29.96,13,7,19,0.00
2013-4-4,82,78,75,-100,-100,-100,0,0,100,30.03,29.92,11,7,19,0.00
2013-4-5,77,72,66,-100,-100,-100,0,0,100,29.98,29.82,25,9,33,0.00
2013-4-6,74,69,65,-100,-100,-100,0,0,100,30.07,29.93,25,10,28,0.00
2013-4-7,79,75,73,-100,-100,-100,0,0,100,30.09,29.97,17,10,22,0.00
2013-4-8,79,76,74,-100,-100,-100,0,0,100,30.10,30.00,15,10,20,0.00
2013-4-9,80,77,74,-100,-100,-100,0,0,100,30.10,30.02,16,10,23,0.00
2013-4-10,82,78,76,-100,-100,-100,0,0,100,30.08,29.95,13,9,21,0.00
2013-4-11,82,79,75,-100,-100,-100,0,0,100,29.99,29.87,15,10,24,0.00
2013-4-12,83,80,77,-100,-100,-100,0,0,100,29.97,29.87,11,6,20,0.00
2013-4-13,88,81,75,-100,-100,-100,0,0,100,29.97,29.89,11,5,15,0.00
2013-4-14,83,80,78,-100,-100,-100,0,0,100,29.96,29.88,13,7,19,0.00
2013-4-15,90,83,78,-100,-100,-100,0,0,100,30.03,29.91,11,5,14,0.00
2013-4-16,84,81,79,-100,-100,-100,0,0,100,30.08,30.00,13,8,19,0.00
2013-4-17,83,81,79,-100,-100,-100,0,0,100,30.08,29.99,14,9,20,0.00
2013-4-18,83,80,74,-100,-100,-100,0,0,100,30.03,29.95,13,10,22,0.00
2013-4-19,84,81,79,-100,-100,-100,0,0,100,30.03,29.95,13,9,21,0.00
2013-4-20,89,82,78,-100,-100,-100,0,0,100,30.06,29.96,11,4,14,0.00
2013-4-21,83,79,72,-100,-100,-100,0,0,100,30.08,29.98,12,6,34,0.00
2013-4-22,82,78,72,-100,-100,-100,0,0,100,30.05,29.92,19,5,23,0.00
2013-4-23,82,78,75,-100,-100,-100,0,0,100,30.05,29.94,21,14,27,0.00
2013-4-24,81,78,76,-100,-100,-100,0,0,100,30.11,30.01,21,12,26,0.00
2013-4-25,80,78,75,-100,-100,-100,0,0,100,30.17,30.06,15,10,20,0.00
2013-4-26,79,76,74,-100,-100,-100,0,0,100,30.20,30.09,19,12,23,0.00
2013-4-27,80,77,75,-100,-100,-100,0,0,100,30.17,30.04,17,12,23,0.00
2013-4-28,82,78,71,-100,-100,-100,0,0,100,30.07,29.95,17,10,23,0.00
2013-4-29,82,78,71,-100,-100,-100,0,0,100,30.01,29.91,15,8,26,0.00
2013-4-30,84,80,75,-100,-100,-100,0,0,100,29.98,29.90,12,7,18,0.00
2013-5-1,82,79,73,-100,-100,-100,0,0,100,29.99,29.88,11,5,19,0.00
2013-5-2,82,74,67,-100,-100,-100,0,0,100,29.95,29.80,28,8,33,0.00
2013-5-3,86,77,69,-100,-100,-100,0,0,100,29.83,29.70,25,5,30,0.00
2013-5-4,80,78,75,-100,-100,-100,0,0,100,29.84,29.71,24,17,28,0.00
2013-5-5,78,74,73,-100,-100,-100,0,0,100,29.95,29.80,22,17,27,0.00
2013-5-6,79,75,72,-100,-100,-100,0,0,100,30.04,29.93,16,7,22,0.00
2013-5-7,86,77,71,-100,-100,-100,0,0,100,30.08,29.97,10,4,13,0.00
2013-5-8,81,76,71,-100,-100,-100,0,0,100,30.13,30.05,8,4,12,0.00
2013-5-9,82,78,75,-100,-100,-100,0,0,100,30.14,30.05,13,8,17,0.00
2013-5-10,86,80,78,-100,-100,-100,0,0,100,30.11,30.01,9,5,13,0.00
2013-5-11,85,81,79,-100,-100,-100,0,0,100,30.07,30.00,11,6,17,0.00
2013-5-12,86,81,79,-100,-100,-100,0,0,100,30.05,29.97,11,5,17,0.00
2013-5-13,89,81,79,-100,-100,-100,0,0,100,30.09,29.99,17,8,21,0.00
2013-5-14,80,79,77,-100,-100,-100,0,0,100,30.13,30.03,19,14,24,0.00
2013-5-15,80,78,76,-100,-100,-100,0,0,100,30.14,30.06,16,12,24,0.00
2013-5-16,80,73,75,-100,-100,-100,0,0,100,30.09,30.00,13,8,20,0.00
2013-5-17,83,78,76,-100,-100,-100,0,0,100,30.07,30.00,12,5,14,0.00
2013-5-18,84,81,78,-100,-100,-100,0,0,100,30.09,30.02,10,6,17,0.00
2013-5-19,83,81,79,-100,-100,-100,0,0,100,30.08,29.97,12,7,18,0.00
2013-5-20,84,80,71,-100,-100,-100,0,0,100,30.04,29.97,27,7,32,0.00
2013-5-21,83,80,78,-100,-100,-100,0,0,100,30.01,29.89,12,6,17,0.00
2013-5-22,89,82,72,-100,-100,-100,0,0,100,29.96,29.88,19,4,29,0.00
2013-5-23,90,83,78,-100,-100,-100,0,0,100,30.02,29.93,13,5,15,0.00
2013-5-24,88,83,78,-100,-100,-100,0,0,100,30.07,29.96,16,6,22,0.00
2013-5-25,85,82,78,-100,-100,-100,0,0,100,30.12,30.01,20,9,25,0.00
2013-5-26,84,81,79,-100,-100,-100,0,0,100,30.14,30.06,20,12,25,0.00
2013-5-27,81,77,71,-100,-100,-100,0,0,100,30.11,30.00,20,10,26,0.00
2013-5-28,82,79,76,-100,-100,-100,0,0,100,30.06,29.98,14,9,21,0.00
2013-5-29,80,76,71,-100,-100,-100,0,0,100,30.04,29.95,14,7,20,0.00
2013-5-30,80,76,73,-100,-100,-100,0,0,100,30.03,29.95,13,6,20,0.00
2013-5-31,83,79,75,-100,-100,-100,0,0,100,30.02,29.96,10,5,16,0.00
2013-6-1,84,79,75,-100,-100,-100,0,0,100,30.02,29.93,11,4,20,0.00
2013-6-2,83,78,75,-100,-100,-100,0,0,100,30.00,29.92,10,4,21,0.00
2013-6-3,81,77,73,-100,-100,-100,0,0,100,30.02,29.91,15,-3,21,0.00
2013-6-4,82,79,73,-100,-100,-100,0,0,100,30.01,29.94,13,6,18,0.00
2013-6-5,83,82,77,-100,-100,-100,0,0,100,29.99,29.85,12,8,21,0.00
2013-6-6,87,82,75,-100,-100,-100,0,0,100,29.89,29.79,28,9,35,0.00
2013-6-7,88,82,75,-100,-100,-100,0,0,100,30.01,29.86,17,6,20,0.00
2013-6-8,85,82,78,-100,-100,-100,0,0,100,30.07,29.96,10,6,17,0.00
2013-6-9,85,82,78,-100,-100,-100,0,0,100,30.07,29.99,15,9,21,0.00
2013-6-10,85,83,81,-100,-100,-100,0,0,100,30.06,29.97,13,9,19,0.00
2013-6-11,90,84,79,-100,-100,-100,0,0,100,30.06,29.99,10,4,14,0.00
2013-6-12,89,82,76,-100,-100,-100,0,0,100,30.08,29.98,17,4,28,0.00
2013-6-13,88,82,78,-100,-100,-100,0,0,100,30.06,29.96,9,3,14,0.00
2013-6-14,91,84,77,-100,-100,-100,0,0,100,30.00,29.91,7,3,11,0.00
2013-6-15,91,84,80,-100,-100,-100,0,0,100,30.04,29.93,10,4,16,0.00
2013-6-16,87,84,80,-100,-100,-100,0,0,100,30.07,30.00,12,6,16,0.00
2013-6-17,87,84,82,-100,-100,-100,0,0,100,30.07,29.99,12,8,19,0.00
2013-6-18,87,84,82,-100,-100,-100,0,0,100,30.05,29.98,11,7,18,0.00
2013-6-19,87,84,81,-100,-100,-100,0,0,100,30.04,29.97,9,6,15,0.00
2013-6-20,87,84,82,-100,-100,-100,0,0,100,30.07,30.00,9,7,15,0.00
2013-6-22,87,85,83,-100,-100,-100,0,0,100,30.08,30.02,11,7,15,0.00
2013-6-23,86,83,79,-100,-100,-100,0,0,100,30.10,30.02,12,7,19,0.00
2013-6-24,86,83,75,-100,-100,-100,0,0,100,30.14,30.05,13,7,18,0.00
2013-6-25,87,84,81,-100,-100,-100,0,0,100,30.09,30.01,11,8,18,0.00
2013-6-26,86,83,82,-100,-100,-100,0,0,100,30.06,29.99,12,6,18,0.00
2013-6-27,86,83,80,-100,-100,-100,0,0,100,30.04,29.96,11,5,14,0.00
2013-6-28,87,84,81,-100,-100,-100,0,0,100,29.99,29.88,6,3,12,0.00
2013-6-29,90,85,79,-100,-100,-100,0,0,100,29.94,29.86,9,5,18,0.00
2013-6-30,87,83,79,-100,-100,-100,0,0,100,29.95,29.86,14,8,26,0.00
2013-7-1,89,83,80,-100,-100,-100,0,0,100,30.02,29.90,13,6,21,0.00
2013-7-2,87,82,74,-100,-100,-100,0,0,100,30.09,29.95,11,6,17,0.00
2013-7-3,86,80,73,-100,-100,-100,0,0,100,30.09,30.02,12,7,21,0.00
2013-7-4,86,84,79,-100,-100,-100,0,0,100,30.10,30.03,13,10,22,0.00
2013-7-5,85,80,73,-100,-100,-100,0,0,100,30.11,30.02,15,7,27,0.00
2013-7-6,86,83,80,-100,-100,-100,0,0,100,30.07,29.99,17,8,24,0.00
2013-7-7,85,83,77,-100,-100,-100,0,0,100,30.07,30.00,16,8,31,0.00
2013-7-8,85,82,79,-100,-100,-100,0,0,100,30.12,30.04,15,8,22,0.00
2013-7-9,84,82,80,-100,-100,-100,0,0,100,30.13,30.04,12,6,15,0.00
2013-7-10,91,80,77,-100,-100,-100,0,0,100,30.07,29.99,8,4,13,0.00
2013-7-11,88,83,80,-100,-100,-100,0,0,100,30.04,29.93,8,3,12,0.00
2013-7-12,91,83,80,-100,-100,-100,0,0,100,29.99,29.90,10,4,14,0.00
2013-7-13,87,82,73,-100,-100,-100,0,0,100,30.02,29.91,11,7,19,0.00
2013-7-14,86,81,74,-100,-100,-100,0,0,100,30.07,29.95,21,8,26,0.00
2013-7-15,83,79,75,-100,-100,-100,0,0,100,30.06,29.99,21,10,26,0.00
2013-7-16,83,80,73,-100,-100,-100,0,0,100,30.08,29.99,21,9,26,0.00
2013-7-17,80,77,72,-100,-100,-100,0,0,100,30.11,30.01,11,6,15,0.00
2013-7-18,82,77,72,-100,-100,-100,0,0,100,30.14,30.02,23,8,30,0.00
2013-7-19,86,82,77,-100,-100,-100,0,0,100,30.10,30.02,13,7,19,0.00
2013-7-20,87,84,80,-100,-100,-100,0,0,100,30.10,30.01,14,6,19,0.00
2013-7-21,87,84,81,-100,-100,-100,0,0,100,30.13,30.05,9,6,14,0.00
2013-7-22,86,83,81,-100,-100,-100,0,0,100,30.14,30.07,9,6,15,0.00
2013-7-23,87,84,82,-100,-100,-100,0,0,100,30.11,30.01,8,4,13,0.00
2013-7-24,92,86,79,-100,-100,-100,0,0,100,30.04,29.96,9,4,11,0.00
2013-7-25,91,85,80,-100,-100,-100,0,0,100,30.06,29.94,14,6,17,0.00
2013-7-26,91,85,81,-100,-100,-100,0,0,100,30.06,29.99,13,7,17,0.00
2013-7-27,94,87,84,-100,-100,-100,0,0,100,30.04,29.96,11,5,15,0.00
2013-7-28,91,85,80,-100,-100,-100,0,0,100,30.07,29.95,7,3,11,0.00
2013-7-29,88,84,83,-100,-100,-100,0,0,100,30.10,30.01,11,5,17,0.00
2013-7-30,87,84,79,-100,-100,-100,0,0,100,30.14,30.06,11,6,16,0.00
2013-7-31,87,85,82,-100,-100,-100,0,0,100,30.09,29.97,17,9,22,0.00
2013-8-1,87,84,83,-100,-100,-100,0,0,100,30.02,29.92,11,6,15,0.00
2013-8-2,93,86,81,-100,-100,-100,0,0,100,30.06,29.93,6,3,11,0.00
2013-8-3,92,86,82,-100,-100,-100,0,0,100,30.12,30.03,7,4,13,0.00
2013-8-4,94,86,82,-100,-100,-100,0,0,100,30.11,30.02,7,3,10,0.00
2013-8-5,93,86,82,-100,-100,-100,0,0,100,30.06,29.98,13,6,16,0.00
2013-8-6,91,84,77,-100,-100,-100,0,0,100,30.00,29.91,19,-7,23,0.00
2013-8-7,87,84,80,-100,-100,-100,0,0,100,29.95,29.89,9,5,17,0.00
2013-8-8,88,85,80,-100,-100,-100,0,0,100,29.98,29.89,12,9,19,0.00
2013-8-9,86,83,78,-100,-100,-100,0,0,100,30.02,29.91,15,8,23,0.00
2013-8-10,88,86,83,-100,-100,-100,0,0,100,30.08,29.98,15,10,24,0.00
2013-8-11,88,85,83,-100,-100,-100,0,0,100,30.11,30.03,17,11,22,0.00
2013-8-31,89,83,80,-100,-100,-100,0,0,100,29.98,29.92,6,2,9,0.00
2013-9-1,87,70,82,-100,-100,-100,0,0,100,29.96,29.93,6,4,10,0.00
2013-9-2,92,87,82,-100,-100,-100,0,0,100,30.03,29.94,6,4,10,0.00
2013-9-3,85,83,81,-100,-100,-100,0,0,100,30.00,29.94,6,5,9,0.00
2013-9-4,87,86,83,-100,-100,-100,0,0,100,30.03,29.93,9,7,15,0.00
2013-9-5,87,85,83,-100,-100,-100,0,0,100,30.02,29.98,11,9,18,0.00
2013-9-6,87,85,84,-100,-100,-100,0,0,100,30.02,29.92,9,7,14,0.00